• In Russia
  • List of Countries
  • For 7 days
  • Water Temperature
  • Satellite Maps
  • Weather Map
  • Weather Widgets
  • user-avatar
    Login

    Hourly Weather Mbandaka

    Today, 20 August, Monday

    Time Temperature Precipitation Wind Pressure Humidity
    00:00 +25°C° 0.9 mm 1 mps 732 mmHg 90%
    01:00 +22°C° 0 mm 0 mps 733 mmHg 95%
    02:00 +24°C° 0.2 mm 1 mps 732 mmHg 94%
    03:00 +24°C° 0.2 mm 1 mps 732 mmHg 94%
    04:00 +24°C° 0.2 mm 1 mps 732 mmHg 94%
    05:00 +24°C° 0.2 mm 1 mps 733 mmHg 93%
    06:00 +24°C° 0.2 mm 1 mps 733 mmHg 92%
    07:00 +25°C° 0.2 mm 1 mps 733 mmHg 91%
    08:00 +26°C° 0.5 mm 2 mps 733 mmHg 85%
    09:00 +28°C° 0.5 mm 2 mps 734 mmHg 78%
    10:00 +29°C° 0.5 mm 2 mps 734 mmHg 72%
    11:00 +30°C° 0.6 mm 2 mps 733 mmHg 66%
    12:00 +31°C° 0.6 mm 2 mps 732 mmHg 60%
    13:00 +34°C° 0.6 mm 2 mps 732 mmHg 54%
    14:00 +34°C° 0.2 mm 2 mps 731 mmHg 53%
    15:00 +33°C° 0.2 mm 1 mps 731 mmHg 52%
    16:00 +33°C° 0.2 mm 1 mps 730 mmHg 51%
    17:00 +31°C° 0 mm 1 mps 730 mmHg 58%
    18:00 +29°C° 0 mm 1 mps 730 mmHg 64%
    19:00 +26°C° 0 mm 0 mps 731 mmHg 71%
    20:00 +25°C° 0.1 mm 0 mps 731 mmHg 74%
    21:00 +25°C° 0.1 mm 0 mps 732 mmHg 76%
    22:00 +24°C° 0.1 mm 0 mps 732 mmHg 79%
    23:00 +24°C° 0.2 mm 0 mps 732 mmHg 81%

    Tomorrow, 21 August, Tuesday

    Time Temperature Precipitation Wind Pressure Humidity
    00:00 +23°C° 0.2 mm 0 mps 732 mmHg 84%
    01:00 +25°C° 0.2 mm 1 mps 732 mmHg 86%
    02:00 +24°C° 0.6 mm 1 mps 732 mmHg 89%
    03:00 +24°C° 0.6 mm 1 mps 732 mmHg 92%
    04:00 +23°C° 0.6 mm 1 mps 732 mmHg 94%
    05:00 +24°C° 0.6 mm 1 mps 732 mmHg 94%
    06:00 +24°C° 0.6 mm 1 mps 732 mmHg 93%
    07:00 +24°C° 0.6 mm 1 mps 733 mmHg 92%
    08:00 +26°C° 0.2 mm 1 mps 733 mmHg 84%
    09:00 +28°C° 0.2 mm 1 mps 734 mmHg 76%
    10:00 +30°C° 0.2 mm 2 mps 734 mmHg 68%
    11:00 +31°C° 0.2 mm 2 mps 733 mmHg 63%
    12:00 +32°C° 0.2 mm 2 mps 733 mmHg 58%
    13:00 +34°C° 0.2 mm 2 mps 732 mmHg 52%
    14:00 +34°C° 0 mm 2 mps 731 mmHg 53%
    15:00 +32°C° 0 mm 1 mps 731 mmHg 54%
    16:00 +32°C° 0 mm 1 mps 730 mmHg 55%
    17:00 +30°C° 0 mm 1 mps 730 mmHg 62%
    18:00 +29°C° 0 mm 1 mps 730 mmHg 70%
    19:00 +27°C° 0 mm 1 mps 731 mmHg 77%
    20:00 +27°C° 0 mm 1 mps 731 mmHg 79%
    21:00 +26°C° 0 mm 1 mps 732 mmHg 80%
    22:00 +26°C° 0 mm 1 mps 732 mmHg 82%
    23:00 +26°C° 0.2 mm 1 mps 732 mmHg 83%

    Day after tomorrow, 22 August, Wednesday

    Time Temperature Precipitation Wind Pressure Humidity
    00:00 +25°C° 0.2 mm 1 mps 732 mmHg 85%
    01:00 +25°C° 0.2 mm 1 mps 732 mmHg 87%
    02:00 +25°C° 0.5 mm 1 mps 731 mmHg 90%
    03:00 +24°C° 0.5 mm 1 mps 731 mmHg 93%
    04:00 +24°C° 0.5 mm 1 mps 731 mmHg 96%
    05:00 +24°C° 0.2 mm 1 mps 732 mmHg 95%
    06:00 +24°C° 0.2 mm 1 mps 732 mmHg 94%
    07:00 +25°C° 0.2 mm 1 mps 733 mmHg 93%
    08:00 +26°C° 0.1 mm 1 mps 733 mmHg 85%
    09:00 +28°C° 0.1 mm 2 mps 734 mmHg 77%
    10:00 +30°C° 0.1 mm 2 mps 734 mmHg 68%
    11:00 +30°C° 0.9 mm 2 mps 733 mmHg 68%
    12:00 +30°C° 0.9 mm 2 mps 733 mmHg 68%
    13:00 +31°C° 0.9 mm 2 mps 732 mmHg 69%
    14:00 +30°C° 0.7 mm 2 mps 731 mmHg 70%
    15:00 +30°C° 0.7 mm 1 mps 731 mmHg 71%
    16:00 +30°C° 0.7 mm 1 mps 730 mmHg 72%
    17:00 +29°C° 0.7 mm 1 mps 731 mmHg 77%
    18:00 +25°C° 0.7 mm 0 mps 731 mmHg 83%
    19:00 +24°C° 0.7 mm 0 mps 732 mmHg 89%
    20:00 +23°C° 1 mm 0 mps 732 mmHg 91%
    21:00 +25°C° 1 mm 1 mps 733 mmHg 92%
    22:00 +25°C° 1 mm 1 mps 733 mmHg 94%
    23:00 +25°C° 1.5 mm 1 mps 733 mmHg 94%

    23 August, Thursday

    Time Temperature Precipitation Wind Pressure Humidity
    00:00 +25°C° 1.5 mm 1 mps 733 mmHg 95%
    01:00 +24°C° 1.5 mm 1 mps 732 mmHg 95%
    02:00 +24°C° 0.6 mm 1 mps 732 mmHg 95%
    03:00 +24°C° 0.6 mm 1 mps 732 mmHg 96%
    04:00 +24°C° 0.6 mm 1 mps 732 mmHg 96%
    05:00 +24°C° 0.3 mm 1 mps 732 mmHg 95%
    06:00 +24°C° 0.3 mm 1 mps 733 mmHg 95%
    07:00 +24°C° 0.3 mm 1 mps 733 mmHg 95%
    08:00 +25°C° 0.2 mm 1 mps 734 mmHg 87%
    09:00 +26°C° 0.2 mm 2 mps 734 mmHg 80%
    10:00 +28°C° 0.2 mm 2 mps 734 mmHg 73%
    11:00 +28°C° 0 mm 2 mps 734 mmHg 68%
    12:00 +29°C° 0 mm 2 mps 733 mmHg 63%
    13:00 +30°C° 0 mm 3 mps 732 mmHg 58%
    14:00 +30°C° 0 mm 2 mps 731 mmHg 60%
    15:00 +29°C° 0 mm 2 mps 731 mmHg 62%
    16:00 +29°C° 0 mm 2 mps 730 mmHg 63%
    17:00 +28°C° 0 mm 2 mps 731 mmHg 69%
    18:00 +26°C° 0 mm 1 mps 732 mmHg 75%
    19:00 +23°C° 0 mm 0 mps 732 mmHg 81%
    20:00 +23°C° 0 mm 0 mps 733 mmHg 82%
    21:00 +23°C° 0 mm 0 mps 733 mmHg 84%
    22:00 +22°C° 0 mm 0 mps 733 mmHg 85%
    23:00 +22°C° 0.2 mm 0 mps 733 mmHg 87%

    24 August, Friday

    Time Temperature Precipitation Wind Pressure Humidity
    00:00 +22°C° 0.2 mm 0 mps 733 mmHg 89%
    01:00 +21°C° 0.2 mm 0 mps 732 mmHg 91%
    02:00 +21°C° 0.3 mm 0 mps 732 mmHg 92%
    03:00 +21°C° 0.3 mm 0 mps 732 mmHg 93%
    04:00 +21°C° 0.3 mm 0 mps 732 mmHg 94%
    05:00 +21°C° 0.5 mm 0 mps 732 mmHg 95%
    06:00 +21°C° 0.5 mm 0 mps 733 mmHg 95%
    07:00 +21°C° 0.5 mm 0 mps 733 mmHg 95%
    08:00 +24°C° 0.5 mm 1 mps 734 mmHg 93%
    09:00 +25°C° 0.5 mm 1 mps 734 mmHg 90%
    10:00 +26°C° 0.5 mm 1 mps 734 mmHg 87%
    11:00 +27°C° 0.2 mm 1 mps 733 mmHg 82%
    12:00 +28°C° 0.2 mm 1 mps 732 mmHg 76%
    13:00 +29°C° 0.2 mm 2 mps 732 mmHg 71%
    14:00 +28°C° 0.1 mm 1 mps 731 mmHg 72%
    15:00 +28°C° 0.1 mm 1 mps 731 mmHg 73%
    16:00 +28°C° 0.1 mm 1 mps 731 mmHg 73%
    17:00 +27°C° 0 mm 1 mps 731 mmHg 79%
    18:00 +25°C° 0 mm 1 mps 731 mmHg 84%
    19:00 +22°C° 0 mm 0 mps 732 mmHg 89%
    20:00 +22°C° 0 mm 0 mps 732 mmHg 89%
    21:00 +22°C° 0 mm 0 mps 732 mmHg 89%
    22:00 +22°C° 0 mm 0 mps 733 mmHg 89%
    23:00 +22°C° 0 mm 0 mps 732 mmHg 88%

    25 August, Saturday

    Time Temperature Precipitation Wind Pressure Humidity
    00:00 +21°C° 0 mm 0 mps 732 mmHg 87%
    01:00 +21°C° 0 mm 0 mps 732 mmHg 87%
    02:00 +21°C° 0 mm 0 mps 732 mmHg 88%
    03:00 +21°C° 0 mm 0 mps 732 mmHg 89%
    04:00 +23°C° 0 mm 1 mps 732 mmHg 90%
    05:00 +23°C° 0 mm 1 mps 732 mmHg 88%
    06:00 +24°C° 0 mm 1 mps 733 mmHg 86%
    07:00 +25°C° 0 mm 1 mps 733 mmHg 84%
    08:00 +27°C° 0 mm 1 mps 733 mmHg 76%
    09:00 +29°C° 0 mm 1 mps 734 mmHg 68%
    10:00 +31°C° 0 mm 1 mps 734 mmHg 59%
    11:00 +33°C° 0.1 mm 1 mps 733 mmHg 54%
    12:00 +34°C° 0.1 mm 1 mps 732 mmHg 48%
    13:00 +36°C° 0.1 mm 1 mps 731 mmHg 43%
    14:00 +35°C° 0 mm 1 mps 731 mmHg 47%
    15:00 +33°C° 0 mm 1 mps 730 mmHg 50%
    16:00 +30°C° 0 mm 0 mps 730 mmHg 54%
    17:00 +29°C° 0 mm 0 mps 730 mmHg 58%
    18:00 +28°C° 0 mm 0 mps 731 mmHg 63%
    19:00 +26°C° 0 mm 0 mps 731 mmHg 67%
    20:00 +25°C° 0.6 mm 0 mps 731 mmHg 72%
    21:00 +25°C° 0.6 mm 0 mps 732 mmHg 77%
    22:00 +24°C° 0.6 mm 0 mps 732 mmHg 83%
    23:00 +23°C° 0.6 mm 0 mps 732 mmHg 85%
    Show more